This demonstration page uses our WeatherBlox Daily Observations layout. Learn more.

Left ArrowRight Arrow

40.92501, -98.34201

Hourly Observations for May 27, 2020

Temp ( °F °C ) Dew Point ( °F °C ) Humidity (%) Winds ( mph kmh ) Pressure ( in mb ) Visibility ( mi km ) Precip ( " mm )
12:53 am 00:53 Clear 57 13.9 54 12.2 90 90 WSW 3 6 29.92 1013 9 14 0.00 0.00
1:53 am 01:53 Clear 57 13.9 53 11.7 87 87 WNW 6 9 29.92 1013 10 16 0.00 0.00
2:53 am 02:53 Clear 56 13.3 52 11.1 87 87 W 5 7 29.93 1013 10 16 0.00 0.00
3:53 am 03:53 Clear 54 12.2 50 10 87 87 W 6 9 29.93 1014 10 16 0.00 0.00
4:53 am 04:53 Clear 54 12.2 50 10 87 87 W 6 9 29.92 1013 10 16 0.00 0.00
5:53 am 05:53 Clear 53 11.7 50 10 89 89 WNW 6 9 29.94 1014 10 16 0.00 0.00
6:53 am 06:53 Sunny 54 12.2 49 9.4 83 83 NW 9 15 29.94 1014 10 16 0.00 0.00
7:53 am 07:53 Sunny 56 13.3 51 10.6 84 84 WNW 7 11 29.97 1015 10 16 0.00 0.00
8:53 am 08:53 Sunny 59 15 51 10.6 75 75 NW 7 11 29.97 1015 10 16 0.00 0.00
9:53 am 09:53 Sunny 63 17.2 52 11.1 68 68 NNW 8 13 29.97 1015 10 16 0.00 0.00
10:53 am 10:53 Sunny 72 22.2 52 11.1 50 50 NNW 10 17 29.96 1014 10 16 0.00 0.00
11:53 am 11:53 Sunny 73 22.8 52 11.1 48 48 NNE 13 20 29.96 1015 10 16 0.00 0.00
12:53 pm 12:53 Sunny 72 22.2 50 10 46 46 NNE 9 15 29.96 1015 10 16 0.00 0.00
1:53 pm 13:53 Sunny 73 22.8 52 11.1 48 48 N 8 13 29.95 1014 10 16 0.00 0.00
2:53 pm 14:53 Sunny 76 24.4 52 11.1 43 43 N 8 13 29.94 1014 10 16 0.00 0.00
3:53 pm 15:53 Sunny 77 25 52 11.1 42 42 N 10 17 29.92 1013 10 16 0.00 0.00
4:53 pm 16:53 Sunny 78 25.6 51 10.6 39 39 NNE 10 17 29.91 1013 10 16 0.00 0.00
5:53 pm 17:53 Sunny 77 25 52 11.1 42 42 E 7 11 29.92 1013 10 16 0.00 0.00
6:53 pm 18:53 Mostly Cloudy 77 25 54 12.2 45 45 N 8 13 29.91 1013 10 16 0.00 0.00
7:53 pm 19:53 Sunny 71 21.7 56 13.3 59 59 N 7 11 29.92 1013 10 16 0.00 0.00
8:53 pm 20:53 Sunny 67 19.4 56 13.3 68 68 N 8 13 29.93 1014 10 16 0.00 0.00
9:53 pm 21:53 Clear 67 19.4 54 12.2 63 63 NNE 8 13 29.95 1014 10 16 0.00 0.00
10:53 pm 22:53 Clear 65 18.3 57 13.9 76 76 Calm 29.95 1014 10 16 0.00 0.00
11:53 pm 23:53 Clear 61 16.1 55 12.8 81 81 NW 5 7 29.96 1015 10 16 0.00 0.00

Powered by AerisWeather